N12HJ KSAN-KPHX

Flight info

Callsign N12HJ
Flight time 0h 52m
Altitude 31000
Route ZZOOO4 HOGGZ HYDRR1 KPHX
Aircraft HDJT/L-VGDW/C

Departure

Time 2026-04-22 00:02
Airport San Diego International Airport (KSAN)

Arrival

Time 2026-04-22 00:54
Airport Phoenix Sky Harbor International Airport (KPHX)
Time Latitude Longitude Altitude Speed Heading
2026-04-21 23:52 32.73358 -117.17899 18 ft 0 kts 14°
2026-04-21 23:58 32.73361 -117.17898 15 ft 4 kts 14°
2026-04-21 23:58 32.73383 -117.17914 15 ft 6 kts 254°
2026-04-21 23:58 32.73329 -117.17956 16 ft 6 kts 194°
2026-04-21 23:58 32.73324 -117.17958 16 ft 5 kts 195°
2026-04-21 23:59 32.73258 -117.17977 14 ft 13 kts 172°
2026-04-21 23:59 32.73202 -117.17859 13 ft 21 kts 107°
2026-04-21 23:59 32.73164 -117.17700 14 ft 14 kts 106°
2026-04-21 23:59 32.73132 -117.17586 13 ft 11 kts 127°
2026-04-22 00:00 32.73108 -117.17558 12 ft 0 kts 144°
2026-04-22 00:01 32.73076 -117.17533 8 ft 14 kts 151°
2026-04-22 00:01 32.73023 -117.17588 10 ft 17 kts 287°
2026-04-22 00:01 32.73130 -117.18029 7 ft 102 kts 286°
2026-04-22 00:01 32.73364 -117.18995 359 ft 132 kts 284°
2026-04-22 00:02 32.73641 -117.20131 852 ft 158 kts 283°
2026-04-22 00:02 32.73973 -117.21495 1342 ft 185 kts 284°
2026-04-22 00:02 32.74349 -117.23054 1836 ft 211 kts 284°
2026-04-22 00:02 32.74773 -117.24818 2422 ft 229 kts 284°
2026-04-22 00:03 32.75229 -117.26697 3043 ft 244 kts 284°
2026-04-22 00:03 32.75711 -117.28693 3638 ft 257 kts 284°
2026-04-22 00:03 32.76207 -117.30743 4477 ft 259 kts 284°
2026-04-22 00:03 32.76583 -117.32811 5468 ft 254 kts 270°
2026-04-22 00:04 32.76307 -117.34855 6478 ft 250 kts 250°
2026-04-22 00:04 32.75446 -117.36671 7262 ft 258 kts 230°
2026-04-22 00:04 32.74069 -117.38005 8117 ft 262 kts 210°
2026-04-22 00:04 32.72319 -117.38660 9010 ft 269 kts 189°
2026-04-22 00:05 32.70438 -117.38473 9898 ft 280 kts 168°
2026-04-22 00:05 32.68689 -117.37355 10626 ft 296 kts 144°
2026-04-22 00:05 32.67418 -117.35383 11358 ft 309 kts 122°
2026-04-22 00:05 32.66496 -117.33041 12097 ft 316 kts 118°
2026-04-22 00:06 32.65612 -117.30633 12855 ft 320 kts 118°
2026-04-22 00:06 32.64664 -117.28229 13631 ft 324 kts 120°
2026-04-22 00:06 32.63662 -117.25796 14364 ft 332 kts 118°
2026-04-22 00:06 32.63012 -117.23117 15066 ft 344 kts 102°
2026-04-22 00:07 32.62757 -117.20284 15772 ft 347 kts 97°
2026-04-22 00:07 32.62547 -117.17423 16537 ft 350 kts 98°
2026-04-22 00:07 32.62277 -117.14547 17294 ft 351 kts 100°
2026-04-22 00:07 32.62104 -117.11649 18067 ft 356 kts 89°
2026-04-22 00:08 32.62471 -117.08768 18795 ft 361 kts 75°
2026-04-22 00:08 32.63323 -117.05952 19495 ft 364 kts 67°
2026-04-22 00:08 32.64294 -117.03176 20181 ft 366 kts 68°
2026-04-22 00:08 32.65223 -117.00348 20908 ft 368 kts 69°
2026-04-22 00:09 32.66100 -116.97490 21641 ft 371 kts 72°
2026-04-22 00:09 32.66626 -116.94479 22271 ft 375 kts 87°
2026-04-22 00:09 32.66704 -116.91386 22923 ft 378 kts 93°
2026-04-22 00:09 32.66710 -116.88247 23585 ft 383 kts 92°
2026-04-22 00:10 32.66811 -116.85071 24156 ft 387 kts 90°
2026-04-22 00:10 32.66961 -116.81867 24727 ft 390 kts 90°
2026-04-22 00:10 32.67068 -116.78686 25296 ft 392 kts 92°
2026-04-22 00:10 32.67120 -116.75448 25889 ft 393 kts 93°
2026-04-22 00:11 32.67086 -116.72205 26492 ft 393 kts 95°
2026-04-22 00:11 32.67021 -116.68966 27103 ft 393 kts 96°
2026-04-22 00:11 32.66959 -116.65725 27741 ft 393 kts 95°
2026-04-22 00:11 32.66913 -116.62488 28377 ft 392 kts 95°
2026-04-22 00:12 32.66871 -116.59259 29038 ft 390 kts 95°
2026-04-22 00:12 32.66821 -116.56055 29675 ft 388 kts 96°
2026-04-22 00:12 32.66760 -116.52860 30314 ft 387 kts 96°
2026-04-22 00:12 32.66699 -116.49662 30770 ft 387 kts 95°
2026-04-22 00:13 32.66645 -116.46495 31088 ft 394 kts 95°
2026-04-22 00:13 32.66591 -116.43142 31093 ft 408 kts 94°
2026-04-22 00:13 32.66755 -116.39772 31098 ft 422 kts 87°
2026-04-22 00:14 32.67528 -116.32705 31082 ft 440 kts 85°
2026-04-22 00:14 32.68155 -116.25391 31107 ft 451 kts 88°
2026-04-22 00:15 32.68785 -116.17872 31070 ft 463 kts 86°
2026-04-22 00:15 32.69526 -116.10217 31037 ft 469 kts 87°
2026-04-22 00:16 32.70163 -116.02621 31040 ft 474 kts 87°
2026-04-22 00:16 32.70882 -115.94816 30982 ft 477 kts 86°
2026-04-22 00:17 32.71643 -115.86985 30967 ft 477 kts 86°
2026-04-22 00:17 32.72325 -115.79153 30959 ft 477 kts 87°
2026-04-22 00:18 32.73051 -115.71316 30948 ft 477 kts 86°
2026-04-22 00:18 32.73768 -115.63486 30934 ft 476 kts 87°
2026-04-22 00:19 32.74448 -115.55686 30918 ft 474 kts 86°
2026-04-22 00:19 32.75023 -115.47947 30917 ft 472 kts 91°
2026-04-22 00:20 32.75147 -115.40172 30917 ft 470 kts 93°
2026-04-22 00:20 32.75304 -115.32402 30913 ft 471 kts 91°
2026-04-22 00:21 32.75543 -115.24627 30917 ft 471 kts 92°
2026-04-22 00:21 32.75670 -115.16858 30917 ft 470 kts 92°
2026-04-22 00:22 32.75856 -115.09090 30918 ft 471 kts 91°
2026-04-22 00:22 32.76033 -115.01313 30918 ft 471 kts 92°
2026-04-22 00:23 32.76166 -114.93552 30920 ft 471 kts 91°
2026-04-22 00:23 32.76342 -114.85820 30918 ft 471 kts 91°
2026-04-22 00:24 32.76489 -114.78036 30917 ft 471 kts 92°
2026-04-22 00:24 32.76625 -114.70257 30917 ft 471 kts 91°
2026-04-22 00:25 32.76780 -114.62475 30915 ft 471 kts 91°
2026-04-22 00:25 32.76901 -114.54694 30917 ft 471 kts 92°
2026-04-22 00:26 32.76993 -114.46875 30329 ft 481 kts 92°
2026-04-22 00:26 32.77031 -114.44250 29838 ft 479 kts 92°
2026-04-22 00:26 32.77096 -114.40321 29021 ft 472 kts 92°
2026-04-22 00:26 32.77154 -114.36449 28226 ft 465 kts 92°
2026-04-22 00:27 32.77196 -114.32633 27432 ft 459 kts 92°
2026-04-22 00:27 32.77243 -114.27652 26439 ft 452 kts 92°
2026-04-22 00:27 32.77288 -114.23941 25757 ft 446 kts 91°
2026-04-22 00:27 32.77322 -114.21466 25436 ft 443 kts 91°
2026-04-22 00:28 32.77388 -114.16649 24935 ft 438 kts 92°
2026-04-22 00:28 32.77414 -114.14202 24927 ft 438 kts 92°
2026-04-22 00:28 32.77447 -114.10626 24926 ft 439 kts 92°
2026-04-22 00:28 32.77496 -114.07001 24927 ft 439 kts 90°
2026-04-22 00:29 32.77755 -114.03385 24923 ft 439 kts 85°
2026-04-22 00:29 32.78175 -113.99789 24919 ft 440 kts 83°
2026-04-22 00:29 32.78672 -113.96202 24919 ft 440 kts 82°
2026-04-22 00:29 32.79126 -113.92610 24920 ft 440 kts 84°
2026-04-22 00:30 32.79495 -113.89006 24924 ft 439 kts 86°
2026-04-22 00:30 32.79833 -113.85395 24914 ft 439 kts 85°
2026-04-22 00:30 32.80207 -113.81792 24914 ft 440 kts 84°
2026-04-22 00:30 32.80627 -113.78189 24915 ft 440 kts 84°
2026-04-22 00:31 32.81053 -113.74596 24905 ft 440 kts 83°
2026-04-22 00:31 32.81780 -113.71117 24905 ft 440 kts 71°
2026-04-22 00:31 32.83013 -113.67797 24909 ft 441 kts 60°
2026-04-22 00:31 32.84713 -113.64771 24769 ft 440 kts 50°
2026-04-22 00:32 32.86744 -113.62075 24308 ft 435 kts 45°
2026-04-22 00:32 32.88786 -113.59451 23859 ft 432 kts 46°
2026-04-22 00:32 32.90742 -113.56746 23400 ft 429 kts 49°
2026-04-22 00:32 32.92650 -113.54026 22868 ft 425 kts 48°
2026-04-22 00:33 32.94575 -113.51381 22361 ft 421 kts 47°
2026-04-22 00:33 32.96533 -113.48798 21841 ft 418 kts 46°
2026-04-22 00:33 32.98449 -113.46279 21342 ft 414 kts 47°
2026-04-22 00:33 33.00345 -113.43722 20844 ft 411 kts 48°
2026-04-22 00:34 33.02206 -113.41161 20357 ft 406 kts 48°
2026-04-22 00:34 33.04053 -113.38631 19872 ft 402 kts 48°
2026-04-22 00:34 33.05898 -113.36141 19394 ft 399 kts 47°
2026-04-22 00:34 33.07736 -113.33682 18929 ft 396 kts 47°
2026-04-22 00:35 33.09553 -113.31240 18471 ft 393 kts 48°
2026-04-22 00:35 33.11346 -113.28809 17993 ft 389 kts 48°
2026-04-22 00:35 33.13124 -113.26388 17469 ft 386 kts 48°
2026-04-22 00:35 33.14862 -113.24027 16971 ft 383 kts 48°
2026-04-22 00:36 33.16613 -113.21656 16852 ft 380 kts 48°
2026-04-22 00:36 33.18369 -113.19282 16863 ft 381 kts 48°
2026-04-22 00:36 33.20118 -113.16913 16863 ft 381 kts 48°
2026-04-22 00:36 33.21869 -113.14535 16866 ft 382 kts 48°
2026-04-22 00:37 33.23618 -113.12154 16866 ft 381 kts 48°
2026-04-22 00:37 33.25304 -113.09704 16861 ft 381 kts 57°
2026-04-22 00:37 33.26539 -113.06924 16867 ft 379 kts 69°
2026-04-22 00:37 33.27312 -113.03931 16874 ft 376 kts 82°
2026-04-22 00:38 33.27578 -113.00834 16881 ft 374 kts 91°
2026-04-22 00:38 33.27623 -112.97773 16888 ft 374 kts 92°
2026-04-22 00:38 33.27666 -112.94661 16439 ft 373 kts 91°
2026-04-22 00:38 33.27761 -112.91585 15812 ft 368 kts 90°
2026-04-22 00:39 33.27882 -112.88546 15193 ft 364 kts 90°
2026-04-22 00:39 33.27980 -112.85546 14582 ft 359 kts 91°
2026-04-22 00:39 33.28047 -112.82580 13996 ft 356 kts 91°
2026-04-22 00:39 33.28279 -112.79640 13908 ft 356 kts 85°
2026-04-22 00:40 33.28601 -112.76700 13908 ft 356 kts 85°
2026-04-22 00:40 33.28901 -112.73765 13911 ft 355 kts 86°
2026-04-22 00:40 33.29153 -112.70875 13913 ft 354 kts 87°
2026-04-22 00:40 33.29394 -112.67945 13883 ft 355 kts 87°
2026-04-22 00:41 33.29653 -112.65011 13685 ft 355 kts 86°
2026-04-22 00:41 33.29935 -112.62088 13417 ft 353 kts 86°
2026-04-22 00:41 33.30219 -112.59182 13138 ft 351 kts 86°
2026-04-22 00:41 33.30491 -112.56288 12866 ft 349 kts 86°
2026-04-22 00:42 33.30749 -112.53409 12585 ft 347 kts 87°
2026-04-22 00:42 33.31005 -112.50552 12310 ft 346 kts 86°
2026-04-22 00:42 33.31267 -112.47702 12034 ft 344 kts 86°
2026-04-22 00:42 33.31532 -112.44875 11760 ft 340 kts 86°
2026-04-22 00:43 33.31790 -112.42116 11501 ft 337 kts 87°
2026-04-22 00:43 33.32045 -112.39332 11238 ft 335 kts 87°
2026-04-22 00:43 33.32293 -112.36578 10975 ft 333 kts 87°
2026-04-22 00:43 33.32537 -112.33833 10906 ft 331 kts 87°
2026-04-22 00:44 33.32785 -112.31096 10863 ft 331 kts 87°
2026-04-22 00:44 33.33037 -112.28426 10647 ft 313 kts 87°
2026-04-22 00:44 33.33276 -112.25898 10424 ft 303 kts 88°
2026-04-22 00:44 33.33500 -112.23388 10196 ft 304 kts 88°
2026-04-22 00:45 33.33718 -112.20874 9963 ft 303 kts 88°
2026-04-22 00:45 33.33940 -112.18381 9721 ft 301 kts 88°
2026-04-22 00:45 33.34164 -112.15931 9484 ft 300 kts 87°
2026-04-22 00:45 33.34389 -112.13453 9254 ft 300 kts 87°
2026-04-22 00:46 33.34609 -112.10978 9023 ft 298 kts 87°
2026-04-22 00:46 33.34775 -112.08516 8823 ft 297 kts 92°
2026-04-22 00:46 33.34747 -112.06060 8481 ft 290 kts 94°
2026-04-22 00:46 33.34678 -112.03713 8162 ft 275 kts 95°
2026-04-22 00:47 33.34660 -112.01489 7865 ft 263 kts 88°
2026-04-22 00:47 33.35022 -111.99310 7040 ft 274 kts 79°
2026-04-22 00:47 33.35344 -111.97230 6875 ft 260 kts 82°
2026-04-22 00:47 33.35569 -111.95082 6831 ft 251 kts 86°
2026-04-22 00:48 33.35714 -111.92993 6352 ft 253 kts 87°
2026-04-22 00:48 33.35830 -111.90887 5841 ft 254 kts 88°
2026-04-22 00:48 33.35933 -111.88782 5362 ft 254 kts 88°
2026-04-22 00:48 33.36029 -111.86672 4878 ft 254 kts 88°
2026-04-22 00:49 33.36121 -111.84562 4386 ft 253 kts 86°
2026-04-22 00:49 33.36592 -111.82555 3937 ft 251 kts 58°
2026-04-22 00:49 33.37763 -111.81120 3907 ft 238 kts 26°
2026-04-22 00:49 33.39294 -111.80478 3906 ft 237 kts
2026-04-22 00:50 33.40909 -111.80127 3917 ft 234 kts
2026-04-22 00:50 33.42506 -111.80109 3916 ft 227 kts 340°
2026-04-22 00:50 33.43788 -111.80972 3921 ft 221 kts 310°
2026-04-22 00:50 33.44442 -111.82320 3896 ft 215 kts 283°
2026-04-22 00:51 33.44668 -111.84101 3828 ft 218 kts 267°
2026-04-22 00:51 33.44447 -111.85899 3603 ft 216 kts 257°
2026-04-22 00:51 33.44080 -111.87566 3468 ft 201 kts 254°
2026-04-22 00:51 33.43723 -111.89133 3192 ft 189 kts 255°
2026-04-22 00:52 33.43374 -111.90597 2910 ft 178 kts 254°
2026-04-22 00:52 33.43043 -111.91964 2616 ft 168 kts 253°
2026-04-22 00:52 33.42786 -111.93301 2380 ft 167 kts 265°
2026-04-22 00:52 33.42865 -111.94627 2165 ft 149 kts 272°
2026-04-22 00:53 33.42885 -111.95763 1960 ft 128 kts 269°
2026-04-22 00:53 33.42875 -111.96886 1668 ft 138 kts 269°
2026-04-22 00:53 33.42882 -111.98065 1495 ft 134 kts 271°
2026-04-22 00:53 33.42883 -111.99122 1343 ft 121 kts 270°
2026-04-22 00:54 33.42883 -112.00079 1174 ft 107 kts 269°
2026-04-22 00:54 33.42885 -112.00860 1127 ft 80 kts 270°
2026-04-22 00:54 33.42886 -112.01319 1123 ft 27 kts 270°
2026-04-22 00:54 33.42886 -112.01541 1126 ft 32 kts 270°
2026-04-22 00:55 33.42840 -112.01659 1126 ft 6 kts 193°
2026-04-22 00:55 33.42798 -112.01664 1126 ft 6 kts 205°
2026-04-22 00:55 33.42776 -112.01825 1124 ft 11 kts 269°
2026-04-22 00:56 33.42775 -112.01920 1124 ft 12 kts 271°
2026-04-22 00:56 33.42776 -112.02018 1124 ft 12 kts 269°
2026-04-22 00:56 33.42772 -112.02115 1124 ft 12 kts 266°
2026-04-22 00:56 33.42771 -112.02210 1124 ft 13 kts 272°
2026-04-22 00:57 33.42776 -112.02336 1123 ft 11 kts 269°
2026-04-22 00:57 33.42770 -112.02409 1119 ft 7 kts 238°
2026-04-22 00:57 33.42698 -112.02446 1124 ft 18 kts 194°
2026-04-22 00:57 33.42669 -112.02445 1125 ft 2 kts 111°
2026-04-22 00:58 33.42674 -112.02420 1118 ft 0 kts 65°